This demonstration page uses our WeatherBlox Daily Observations layout. Learn more.

Left ArrowRight Arrow

39.01783, -85.05884

Hourly Observations for November 6, 2021

Temp ( °F °C ) Dew Point ( °F °C ) Humidity (%) Winds ( mph kmh ) Pressure ( in mb ) Visibility ( mi km ) Precip ( " mm )
12:52 am 00:52 Clear 39 3.9 26 -3.3 60 60 ESE 8 13 30.30 1026 10 16 N/A
1:52 am 01:52 Clear 39 3.9 26 -3.3 60 60 ESE 8 13 30.29 1026 10 16 N/A
2:52 am 02:52 Clear 37 2.8 26 -3.3 65 65 N N/A 30.30 1026 10 16 N/A
3:52 am 03:52 Clear 35 1.7 26 -3.3 70 70 N N/A 30.31 1026 10 16 N/A
4:52 am 04:52 Clear 35 1.7 26 -3.3 70 70 N N/A 30.30 1026 10 16 N/A
5:52 am 05:52 Clear 33 0.6 25 -3.9 72 72 N N/A 30.31 1026 10 16 N/A
6:18 am 06:18 Clear 33 0.6 27 -2.8 78 78 NNW 3 6 30.34 1028 9 14 N/A
6:38 am 06:38 Clear with Mist and Fog 31 -0.6 28 -2.2 89 89 N N/A 30.36 1028 6 10 N/A
6:52 am 06:52 Clear with Mist and Fog 31 -0.6 27 -2.8 85 85 N N/A 30.31 1027 6 10 N/A
7:52 am 07:52 Clear with Mist and Fog 31 -0.6 28 -2.2 89 89 N N/A 30.32 1027 5 8 N/A
8:28 am 08:28 Sunny with Mist and Fog 31 -0.6 28 -2.2 89 89 N N/A 30.37 1028 3 5 N/A
8:52 am 08:52 Sunny with Mist and Fog 31 -0.6 28 -2.2 89 89 N N/A 30.33 1027 3 5 N/A
9:52 am 09:52 Sunny 40 4.4 29 -1.7 65 65 ENE 3 6 30.34 1027 8 13 N/A
10:52 am 10:52 Sunny 45 7.2 29 -1.7 54 54 N N/A 30.32 1027 10 16 N/A
11:52 am 11:52 Sunny 50 10 29 -1.7 44 44 N N/A 30.30 1026 10 16 N/A
12:52 pm 12:52 Mostly Sunny 54 12.2 27 -2.8 35 35 NE 5 7 30.29 1026 10 16 N/A
1:52 pm 13:52 Mostly Sunny 54 12.2 29 -1.7 38 38 E 5 7 30.26 1025 10 16 N/A
2:52 pm 14:52 Mostly Sunny 55 12.8 26 -3.3 33 33 N N/A 30.24 1024 10 16 N/A
3:52 pm 15:52 Sunny 56 13.3 26 -3.3 32 32 SE 5 7 30.22 1024 10 16 N/A
4:52 pm 16:52 Sunny 56 13.3 26 -3.3 32 32 SSW 5 7 30.22 1023 10 16 N/A
5:52 pm 17:52 Sunny 54 12.2 28 -2.2 37 37 SSW 3 6 30.22 1023 10 16 N/A
6:52 pm 18:52 Clear 50 10 29 -1.7 44 44 NW 5 7 30.22 1024 10 16 N/A
7:52 pm 19:52 Clear 46 7.8 28 -2.2 50 50 N N/A 30.22 1024 10 16 N/A
8:52 pm 20:52 Clear 43 6.1 29 -1.7 58 58 N N/A 30.23 1024 10 16 N/A
9:52 pm 21:52 Clear 42 5.6 29 -1.7 60 60 N N/A 30.22 1023 10 16 N/A
10:52 pm 22:52 Clear 39 3.9 29 -1.7 67 67 W 3 6 30.24 1024 10 16 N/A
11:52 pm 23:52 Clear 36 2.2 30 -1.1 79 79 S 6 9 30.22 1023 10 16 N/A

Powered by AerisWeather